Location: ????????
(55.0097°N, 38.5678°E)
Time: 14:30:42
(UTC+00:00)

Cosmos 1340 Rocket - Visible Passes

Search period start: 19 July 2024 00:00
Search period end: 29 July 2024 00:00
Orbit: 505 x 542 km, 81.2° (Epoch: 18 July)

Date Brightness Start Highest point End Pass type
(mag) Time Alt. Az. Time Alt. Az. Time Alt. Az.
19 Jul 3.7 21:12:31 10° N 21:16:13 40° ENE 21:18:55 17° SE visible
19 Jul 4.2 22:48:54 10° NW 22:52:05 24° W 22:54:04 17° SW visible
20 Jul 3.8 20:59:58 10° N 21:03:36 37° ENE 21:06:15 16° SE visible
20 Jul 4.1 22:36:14 10° NW 22:39:31 26° W 22:41:25 18° SW visible
21 Jul 4.0 20:47:22 10° N 20:50:58 34° ENE 20:53:36 16° SE visible
21 Jul 4.0 22:23:33 10° NNW 22:26:57 29° W 22:28:45 20° SW visible
22 Jul 4.1 20:34:47 10° N 20:38:20 32° ENE 20:40:56 16° ESE visible
22 Jul 3.9 22:10:52 10° NNW 22:14:21 31° W 22:16:06 22° SW visible
23 Jul 4.2 20:22:11 10° N 20:25:39 29° ENE 20:28:17 15° ESE visible
23 Jul 3.7 21:58:10 10° NNW 22:01:44 34° W 22:03:26 23° SW visible
24 Jul 4.3 20:09:34 10° N 20:12:59 27° ENE 20:15:38 14° ESE visible
24 Jul 3.6 21:45:28 10° NNW 21:49:06 37° W 21:50:47 25° SW visible
25 Jul 4.4 19:56:57 10° N 20:00:16 25° ENE 20:02:58 13° ESE visible
25 Jul 3.5 21:32:45 10° NNW 21:36:27 41° W 21:38:08 26° SSW visible
26 Jul 4.5 19:44:20 10° N 19:47:33 24° ENE 19:50:19 12° ESE visible
26 Jul 3.4 21:20:02 10° NNW 21:23:48 45° W 21:25:28 28° SSW visible
27 Jul 4.5 19:31:42 10° N 19:34:50 22° ENE 19:37:39 11° ESE visible
27 Jul 3.3 21:07:18 10° NNW 21:11:07 49° W 21:12:49 29° SSW visible
28 Jul 4.6 19:19:04 10° N 19:22:05 21° ENE 19:25:00 10° ESE visible
28 Jul 3.1 20:54:34 10° NNW 20:58:26 55° W 21:00:09 29° SSW visible
